QPF
0.00 0.00 0.00 0.00 0.00 0.00 0.00 0.00 0.00 0.00 0.00 0.00 0.00 0.00 0.00 0.00 0.00 0.00 0.00 0.00 0.00 0.00 0.00 0.00 0.00 0.00 0.00 0.00 0.00 0.00 0.00 0.00 0.00 0.00 0.00 0.00 0.00 0.01 0.01 0.00 0.00 0.00 0.00
0.00 0.00 0.00 0.00 0.00 0.00 0.00 0.00 0.00 0.00 0.00 0.00 0.00 0.00 0.00 0.00 0.00 0.00 0.00 0.00 0.00 0.00 0.00 0.00 0.00 0.00 0.00 0.00 0.00 0.00 0.00 0.00 0.01 0.00 0.00 0.00 0.00 0.00 0.00 0.00 0.00 0.00 0.00
0.00 0.00 0.00 0.00 0.00 0.00 0.00 0.00 0.00 0.00 0.00 0.00 0.00 0.00 0.00 0.00 0.00 0.00 0.00 0.00 0.00 0.00 0.00 0.00 0.00 0.00 0.00 0.00 0.00 0.00 0.00 0.00 0.00 0.00 0.00 0.00 0.00 0.00 0.00 0.00 0.00 0.00 0.00
0.00 0.00 0.00 0.00 0.00 0.00 0.00 0.00 0.00 0.00 0.00 0.00 0.00 0.00 0.00 0.00 0.00 0.00 0.00 0.00 0.00 0.00 0.00 0.00 0.00 0.00 0.00 0.00 0.00 0.00 0.00 0.00 0.00 0.00 0.00 0.00 0.00 0.00 0.00 0.00 0.00 0.00 0.00
0.00 0.00 0.00 0.00 0.00 0.00 0.00 0.00 0.00 0.00 0.00 0.00 0.00 0.00 0.00 0.00 0.00 0.00 0.00 0.00 0.00 0.00 0.00 0.00 0.00 0.00 0.00 0.00 0.00 0.00 0.00 0.00 0.00 0.00 0.00 0.00 0.00 0.00 0.01 0.00 0.00 0.00 0.00
0.00 0.00 0.00 0.00 0.00 0.00 0.00 0.00 0.00 0.00 0.00 0.00 0.00 0.00 0.00 0.00 0.00 0.00 0.00 0.00 0.00 0.00 0.00 0.00 0.00 0.00 0.00 0.00 0.00 0.00 0.00 0.00 0.00 0.00 0.00 0.00 0.00 0.00 0.01 0.02 0.01 0.00 0.00
0.00 0.00 0.00 0.00 0.00 0.00 0.00 0.00 0.00 0.00 0.00 0.00 0.00 0.00 0.00 0.00 0.00 0.00 0.00 0.00 0.00 0.00 0.00 0.00 0.00 0.00 0.00 0.00 0.00 0.00 0.00 0.00 0.00 0.00 0.00 0.00 0.00 0.00 0.02 0.08 0.06 0.05 0.02
0.00 0.00 0.00 0.00 0.00 0.00 0.00 0.00 0.00 0.00 0.00 0.00 0.00 0.00 0.00 0.00 0.00 0.00 0.00 0.00 0.00 0.00 0.00 0.00 0.00 0.00 0.00 0.00 0.00 0.00 0.02 0.02 0.00 0.01 0.01 0.00 0.00 0.01 0.05 0.11 0.08 0.09 0.08
0.00 0.00 0.00 0.00 0.00 0.00 0.00 0.00 0.00 0.00 0.00 0.00 0.00 0.00 0.00 0.00 0.00 0.00 0.00 0.00 0.00 0.00 0.00 0.00 0.00 0.00 0.00 0.00 0.01 0.01 0.01 0.02 0.02 0.02 0.01 0.01 0.01 0.03 0.08 0.10 0.06 0.06 0.07
0.00 0.00 0.00 0.00 0.00 0.00 0.00 0.00 0.00 0.00 0.00 0.00 0.00 0.00 0.00 0.00 0.00 0.00 0.00 0.00 0.00 0.00 0.00 0.00 0.00 0.00 0.00 0.01 0.00 0.00 0.00 0.00 0.01 0.02 0.01 0.01 0.01 0.02 0.06 0.06 0.09 0.11 0.08
0.00 0.01 0.00 0.00 0.00 0.00 0.00 0.00 0.00 0.00 0.00 0.00 0.01 0.01 0.00 0.00 0.00 0.00 0.00 0.00 0.00 0.00 0.00 0.01 0.02 0.02 0.02 0.01 0.00 0.00 0.00 0.00 0.00 0.00 0.00 0.01 0.01 0.01 0.01 0.03 0.09 0.11 0.10
0.00 0.00 0.00 0.00 0.00 0.00 0.00 0.01 0.01 0.01 0.01 0.01 0.00 0.00 0.00 0.00 0.00 0.00 0.00 0.00 0.00 0.01 0.03 0.08 0.15 0.12 0.06 0.02 0.02 0.02 0.00 0.01 0.01 0.00 0.00 0.01 0.05 0.06 0.03 0.02 0.02 0.05 0.09
0.00 0.00 0.00 0.00 0.00 0.00 0.00 0.00 0.00 0.00 0.00 0.00 0.00 0.00 0.00 0.00 0.00 0.00 0.00 0.00 0.02 0.09 0.17 0.24 0.20 0.10 0.06 0.04 0.02 0.00 0.00 0.01 0.00 0.00 0.00 0.05 0.10 0.10 0.06 0.05 0.04 0.04 0.05
0.00 0.00 0.00 0.00 0.00 0.00 0.00 0.00 0.00 0.00 0.00 0.00 0.00 0.00 0.00 0.01 0.02 0.01 0.01 0.02 0.07 0.13 0.17 0.13 0.10 0.09 0.06 0.02 0.01 0.00 0.00 0.00 0.00 0.00 0.01 0.07 0.11 0.08 0.06 0.05 0.04 0.04 0.04
0.00 0.00 0.00 0.00 0.00 0.00 0.00 0.00 0.00 0.00 0.00 0.00 0.00 0.02 0.08 0.11 0.11 0.10 0.06 0.05 0.08 0.19 0.24 0.20 0.14 0.10 0.07 0.06 0.03 0.01 0.00 0.00 0.00 0.00 0.00 0.03 0.07 0.06 0.04 0.05 0.06 0.06 0.05
0.00 0.00 0.01 0.00 0.00 0.01 0.02 0.03 0.04 0.04 0.02 0.03 0.05 0.11 0.20 0.20 0.16 0.17 0.16 0.18 0.16 0.24 0.28 0.28 0.22 0.21 0.14 0.11 0.05 0.02 0.02 0.00 0.00 0.00 0.00 0.01 0.04 0.06 0.03 0.06 0.09 0.08 0.07
0.00 0.00 0.01 0.01 0.02 0.04 0.06 0.07 0.09 0.10 0.08 0.08 0.12 0.21 0.26 0.29 0.29 0.41 0.44 0.33 0.22 0.29 0.31 0.26 0.21 0.28 0.21 0.18 0.11 0.11 0.08 0.03 0.01 0.01 0.01 0.01 0.01 0.04 0.04 0.08 0.11 0.10 0.12
0.00 0.01 0.02 0.04 0.09 0.14 0.17 0.22 0.24 0.28 0.28 0.25 0.26 0.24 0.23 0.28 0.35 0.48 0.38 0.18 0.20 0.39 0.45 0.38 0.34 0.37 0.27 0.17 0.10 0.18 0.17 0.06 0.03 0.02 0.02 0.01 0.00 0.00 0.02 0.06 0.13 0.16 0.19
0.01 0.03 0.08 0.14 0.15 0.16 0.19 0.22 0.25 0.26 0.26 0.27 0.28 0.23 0.20 0.20 0.27 0.33 0.20 0.11 0.25 0.41 0.32 0.26 0.24 0.31 0.30 0.21 0.16 0.11 0.09 0.05 0.03 0.03 0.01 0.02 0.02 0.02 0.01 0.02 0.12 0.22 0.24
0.01 0.03 0.08 0.11 0.11 0.12 0.19 0.24 0.22 0.22 0.21 0.20 0.22 0.20 0.15 0.11 0.14 0.20 0.19 0.13 0.20 0.20 0.13 0.21 0.35 0.39 0.28 0.22 0.23 0.09 0.06 0.07 0.06 0.04 0.04 0.03 0.03 0.03 0.01 0.01 0.07 0.16 0.21
0.01 0.02 0.01 0.03 0.05 0.09 0.13 0.15 0.13 0.11 0.11 0.12 0.16 0.17 0.13 0.11 0.08 0.09 0.10 0.09 0.13 0.10 0.05 0.14 0.26 0.22 0.11 0.22 0.23 0.09 0.03 0.03 0.03 0.02 0.03 0.02 0.02 0.02 0.02 0.03 0.05 0.10 0.11
0.01 0.01 0.02 0.03 0.04 0.05 0.05 0.04 0.04 0.05 0.04 0.03 0.02 0.01 0.01 0.02 0.02 0.02 0.03 0.04 0.04 0.05 0.03 0.06 0.17 0.20 0.16 0.22 0.23 0.14 0.02 0.00 0.00 0.00 0.00 0.01 0.01 0.01 0.01 0.03 0.07 0.10 0.11
0.00 0.00 0.01 0.00 0.00 0.00 0.00 0.00 0.00 0.00 0.00 0.00 0.00 0.00 0.00 0.00 0.00 0.00 0.00 0.01 0.01 0.02 0.02 0.03 0.09 0.13 0.13 0.12 0.16 0.17 0.05 0.00 0.00 0.00 0.00 0.01 0.01 0.01 0.03 0.08 0.12 0.14 0.16
0.00 0.00 0.00 0.00 0.00 0.00 0.00 0.00 0.00 0.00 0.00 0.00 0.00 0.00 0.00 0.00 0.00 0.00 0.00 0.00 0.00 0.00 0.01 0.01 0.02 0.05 0.07 0.06 0.04 0.04 0.06 0.06 0.03 0.01 0.01 0.01 0.00 0.01 0.05 0.09 0.16 0.23 0.20
0.00 0.00 0.00 0.00 0.00 0.00 0.00 0.00 0.00 0.00 0.00 0.00 0.00 0.00 0.00 0.00 0.00 0.00 0.00 0.00 0.00 0.00 0.01 0.03 0.03 0.03 0.03 0.03 0.04 0.04 0.06 0.07 0.06 0.03 0.01 0.01 0.01 0.02 0.06 0.10 0.20 0.23 0.19
0.00 0.00 0.00 0.00 0.00 0.00 0.00 0.00 0.00 0.00 0.00 0.00 0.00 0.00 0.00 0.00 0.00 0.00 0.00 0.00 0.01 0.01 0.02 0.02 0.02 0.03 0.04 0.05 0.06 0.07 0.07 0.06 0.03 0.03 0.01 0.01 0.01 0.03 0.11 0.18 0.24 0.26 0.22
MSLP
1011.33 1011.03 1011.01 1011.25 1011.68 1012.20 1012.68 1013.05 1013.28 1013.37 1013.39 1013.40 1013.49 1013.69 1014.00 1014.39 1014.79 1015.15 1015.42 1015.58 1015.63 1015.62 1015.59 1015.57 1015.60 1015.68 1015.80 1015.93 1016.06 1016.16 1016.23 1016.28 1016.32 1016.37 1016.44 1016.53 1016.64 1016.75 1016.85 1016.94 1017.01 1017.08 1017.15
1010.96 1010.80 1010.89 1011.22 1011.73 1012.30 1012.82 1013.22 1013.47 1013.58 1013.63 1013.67 1013.78 1014.00 1014.32 1014.71 1015.10 1015.44 1015.68 1015.81 1015.85 1015.83 1015.80 1015.79 1015.83 1015.92 1016.03 1016.15 1016.26 1016.34 1016.38 1016.42 1016.45 1016.51 1016.59 1016.69 1016.80 1016.92 1017.01 1017.09 1017.14 1017.19 1017.24
1010.64 1010.60 1010.79 1011.21 1011.78 1012.38 1012.94 1013.36 1013.64 1013.79 1013.87 1013.95 1014.09 1014.32 1014.63 1014.99 1015.35 1015.64 1015.83 1015.93 1015.95 1015.92 1015.90 1015.90 1015.96 1016.06 1016.18 1016.29 1016.38 1016.44 1016.47 1016.49 1016.53 1016.59 1016.69 1016.81 1016.94 1017.05 1017.14 1017.21 1017.24 1017.28 1017.32
1010.41 1010.47 1010.76 1011.24 1011.84 1012.47 1013.04 1013.48 1013.78 1013.97 1014.08 1014.20 1014.36 1014.59 1014.89 1015.20 1015.50 1015.73 1015.87 1015.92 1015.91 1015.89 1015.88 1015.91 1015.99 1016.11 1016.24 1016.35 1016.43 1016.48 1016.50 1016.52 1016.56 1016.64 1016.75 1016.89 1017.03 1017.14 1017.23 1017.28 1017.31 1017.34 1017.38
1010.30 1010.45 1010.79 1011.31 1011.93 1012.56 1013.12 1013.57 1013.88 1014.09 1014.23 1014.38 1014.56 1014.79 1015.05 1015.32 1015.55 1015.72 1015.80 1015.81 1015.79 1015.77 1015.79 1015.85 1015.96 1016.11 1016.25 1016.36 1016.44 1016.47 1016.49 1016.51 1016.56 1016.65 1016.77 1016.92 1017.06 1017.18 1017.26 1017.30 1017.32 1017.34 1017.39
1010.33 1010.54 1010.91 1011.44 1012.04 1012.64 1013.18 1013.61 1013.92 1014.13 1014.30 1014.47 1014.66 1014.88 1015.12 1015.35 1015.53 1015.63 1015.67 1015.66 1015.63 1015.62 1015.66 1015.77 1015.91 1016.08 1016.23 1016.34 1016.41 1016.44 1016.45 1016.47 1016.52 1016.62 1016.75 1016.90 1017.04 1017.14 1017.20 1017.23 1017.24 1017.26 1017.32
1010.50 1010.74 1011.12 1011.62 1012.18 1012.74 1013.22 1013.60 1013.89 1014.11 1014.28 1014.46 1014.66 1014.89 1015.11 1015.31 1015.45 1015.52 1015.52 1015.50 1015.47 1015.49 1015.56 1015.69 1015.86 1016.04 1016.20 1016.31 1016.37 1016.38 1016.38 1016.40 1016.45 1016.54 1016.67 1016.81 1016.94 1017.02 1017.06 1017.06 1017.06 1017.07 1017.14
1010.79 1011.03 1011.40 1011.86 1012.36 1012.83 1013.25 1013.57 1013.82 1014.02 1014.19 1014.38 1014.60 1014.83 1015.05 1015.23 1015.35 1015.41 1015.40 1015.38 1015.36 1015.40 1015.49 1015.64 1015.82 1016.01 1016.16 1016.25 1016.29 1016.29 1016.28 1016.28 1016.33 1016.41 1016.53 1016.65 1016.75 1016.80 1016.81 1016.78 1016.75 1016.76 1016.83
1011.14 1011.38 1011.72 1012.13 1012.55 1012.95 1013.27 1013.53 1013.73 1013.89 1014.06 1014.26 1014.48 1014.73 1014.96 1015.15 1015.27 1015.33 1015.33 1015.31 1015.30 1015.34 1015.44 1015.59 1015.77 1015.94 1016.08 1016.15 1016.17 1016.15 1016.12 1016.12 1016.14 1016.22 1016.31 1016.40 1016.47 1016.48 1016.46 1016.40 1016.35 1016.34 1016.40
1011.49 1011.73 1012.04 1012.40 1012.75 1013.06 1013.31 1013.49 1013.63 1013.76 1013.92 1014.11 1014.35 1014.61 1014.86 1015.06 1015.20 1015.27 1015.28 1015.26 1015.26 1015.30 1015.39 1015.53 1015.68 1015.83 1015.93 1015.98 1015.98 1015.94 1015.90 1015.88 1015.89 1015.94 1016.01 1016.08 1016.11 1016.09 1016.03 1015.94 1015.86 1015.84 1015.89
1011.78 1012.03 1012.32 1012.64 1012.93 1013.16 1013.33 1013.45 1013.53 1013.63 1013.77 1013.97 1014.22 1014.49 1014.75 1014.97 1015.12 1015.20 1015.22 1015.21 1015.20 1015.23 1015.30 1015.40 1015.52 1015.62 1015.69 1015.72 1015.69 1015.64 1015.59 1015.56 1015.56 1015.60 1015.64 1015.68 1015.68 1015.63 1015.54 1015.43 1015.34 1015.30 1015.35
1011.98 1012.23 1012.52 1012.80 1013.04 1013.22 1013.33 1013.40 1013.44 1013.51 1013.63 1013.82 1014.07 1014.34 1014.62 1014.84 1015.01 1015.09 1015.12 1015.10 1015.08 1015.08 1015.12 1015.18 1015.25 1015.32 1015.36 1015.36 1015.32 1015.27 1015.21 1015.17 1015.17 1015.18 1015.21 1015.22 1015.19 1015.13 1015.03 1014.91 1014.81 1014.77 1014.81
1012.04 1012.30 1012.59 1012.85 1013.07 1013.21 1013.29 1013.32 1013.34 1013.38 1013.48 1013.66 1013.89 1014.16 1014.42 1014.65 1014.81 1014.90 1014.92 1014.90 1014.86 1014.84 1014.83 1014.85 1014.89 1014.92 1014.93 1014.92 1014.88 1014.82 1014.77 1014.73 1014.71 1014.71 1014.72 1014.71 1014.67 1014.60 1014.50 1014.39 1014.30 1014.27 1014.31
1011.97 1012.24 1012.52 1012.77 1012.98 1013.11 1013.17 1013.19 1013.20 1013.23 1013.31 1013.46 1013.67 1013.91 1014.16 1014.37 1014.52 1014.60 1014.62 1014.58 1014.53 1014.48 1014.45 1014.43 1014.43 1014.44 1014.44 1014.42 1014.38 1014.33 1014.28 1014.25 1014.22 1014.21 1014.20 1014.17 1014.13 1014.06 1013.97 1013.88 1013.81 1013.79 1013.84
1011.79 1012.05 1012.31 1012.56 1012.77 1012.90 1012.98 1013.01 1013.02 1013.04 1013.11 1013.23 1013.40 1013.60 1013.81 1013.99 1014.12 1014.19 1014.20 1014.16 1014.10 1014.03 1013.98 1013.94 1013.93 1013.92 1013.91 1013.89 1013.86 1013.83 1013.79 1013.75 1013.71 1013.69 1013.66 1013.62 1013.56 1013.50 1013.43 1013.36 1013.32 1013.33 1013.39
1011.54 1011.77 1012.01 1012.25 1012.46 1012.61 1012.72 1012.77 1012.80 1012.82 1012.87 1012.96 1013.08 1013.23 1013.39 1013.53 1013.63 1013.68 1013.68 1013.65 1013.59 1013.52 1013.46 1013.41 1013.39 1013.38 1013.37 1013.37 1013.35 1013.33 1013.30 1013.26 1013.21 1013.17 1013.11 1013.05 1012.99 1012.92 1012.86 1012.82 1012.81 1012.84 1012.91
1011.30 1011.46 1011.67 1011.89 1012.10 1012.28 1012.42 1012.51 1012.56 1012.60 1012.63 1012.68 1012.75 1012.84 1012.94 1013.02 1013.09 1013.13 1013.12 1013.09 1013.04 1012.98 1012.92 1012.88 1012.86 1012.85 1012.86 1012.86 1012.86 1012.85 1012.83 1012.79 1012.73 1012.66 1012.58 1012.49 1012.41 1012.34 1012.28 1012.25 1012.26 1012.30 1012.37
1011.10 1011.20 1011.35 1011.55 1011.76 1011.96 1012.13 1012.26 1012.35 1012.40 1012.42 1012.43 1012.45 1012.47 1012.50 1012.53 1012.56 1012.57 1012.56 1012.54 1012.50 1012.45 1012.40 1012.36 1012.35 1012.34 1012.36 1012.38 1012.40 1012.40 1012.39 1012.35 1012.28 1012.19 1012.08 1011.96 1011.85 1011.76 1011.69 1011.65 1011.65 1011.69 1011.76
1010.98 1011.00 1011.10 1011.26 1011.46 1011.68 1011.89 1012.06 1012.18 1012.24 1012.26 1012.24 1012.20 1012.16 1012.12 1012.10 1012.08 1012.07 1012.05 1012.02 1011.98 1011.94 1011.90 1011.86 1011.85 1011.85 1011.87 1011.91 1011.94 1011.97 1011.97 1011.94 1011.87 1011.76 1011.63 1011.48 1011.33 1011.21 1011.11 1011.05 1011.03 1011.04 1011.08
1010.95 1010.90 1010.94 1011.06 1011.25 1011.48 1011.71 1011.92 1012.07 1012.15 1012.16 1012.12 1012.04 1011.94 1011.84 1011.75 1011.69 1011.64 1011.60 1011.56 1011.51 1011.46 1011.41 1011.37 1011.34 1011.35 1011.38 1011.43 1011.48 1011.54 1011.56 1011.55 1011.49 1011.38 1011.23 1011.06 1010.88 1010.72 1010.58 1010.47 1010.41 1010.38 1010.39
1010.99 1010.88 1010.86 1010.94 1011.11 1011.34 1011.59 1011.83 1012.01 1012.11 1012.13 1012.07 1011.96 1011.81 1011.66 1011.52 1011.40 1011.31 1011.23 1011.16 1011.08 1011.00 1010.93 1010.86 1010.82 1010.81 1010.84 1010.91 1010.99 1011.08 1011.14 1011.17 1011.14 1011.05 1010.90 1010.72 1010.51 1010.31 1010.12 1009.97 1009.85 1009.78 1009.73
1011.06 1010.91 1010.84 1010.88 1011.02 1011.24 1011.51 1011.76 1011.97 1012.10 1012.14 1012.08 1011.94 1011.76 1011.56 1011.37 1011.20 1011.06 1010.93 1010.81 1010.68 1010.56 1010.43 1010.33 1010.25 1010.23 1010.25 1010.33 1010.44 1010.57 1010.69 1010.77 1010.79 1010.73 1010.61 1010.43 1010.22 1009.99 1009.77 1009.57 1009.40 1009.27 1009.18
1011.10 1010.93 1010.82 1010.83 1010.94 1011.15 1011.41 1011.68 1011.92 1012.08 1012.13 1012.09 1011.95 1011.76 1011.53 1011.30 1011.08 1010.87 1010.68 1010.49 1010.30 1010.10 1009.92 1009.75 1009.63 1009.57 1009.59 1009.67 1009.82 1009.99 1010.17 1010.31 1010.40 1010.41 1010.33 1010.19 1009.99 1009.76 1009.52 1009.29 1009.09 1008.92 1008.78
1011.09 1010.90 1010.77 1010.74 1010.82 1011.00 1011.26 1011.54 1011.80 1011.99 1012.08 1012.07 1011.95 1011.76 1011.52 1011.25 1010.99 1010.72 1010.45 1010.18 1009.91 1009.63 1009.37 1009.13 1008.96 1008.86 1008.85 1008.94 1009.11 1009.33 1009.57 1009.79 1009.95 1010.03 1010.03 1009.94 1009.78 1009.58 1009.35 1009.12 1008.91 1008.72 1008.56
1011.02 1010.83 1010.67 1010.60 1010.65 1010.80 1011.04 1011.33 1011.61 1011.83 1011.96 1011.98 1011.90 1011.72 1011.48 1011.20 1010.89 1010.57 1010.23 1009.88 1009.52 1009.16 1008.80 1008.49 1008.25 1008.11 1008.07 1008.16 1008.34 1008.60 1008.89 1009.17 1009.41 1009.58 1009.65 1009.64 1009.55 1009.40 1009.22 1009.03 1008.84 1008.66 1008.50
1010.93 1010.72 1010.54 1010.43 1010.43 1010.55 1010.77 1011.05 1011.34 1011.59 1011.76 1011.83 1011.78 1011.63 1011.40 1011.11 1010.78 1010.41 1010.01 1009.58 1009.14 1008.69 1008.26 1007.87 1007.56 1007.36 1007.29 1007.36 1007.54 1007.81 1008.14 1008.48 1008.78 1009.02 1009.18 1009.26 1009.26 1009.20 1009.10 1008.98 1008.84 1008.71 1008.58
Thickness
5824 5824 5821 5817 5813 5809 5806 5803 5799 5797 5794 5791 5788 5785 5783 5780 5777 5775 5773 5771 5770 5769 5768 5766 5765 5763 5762 5761 5760 5759 5757 5755 5752 5750 5749 5748 5747 5746 5744 5743 5742 5742 5741
5830 5826 5823 5819 5814 5809 5805 5802 5799 5796 5792 5789 5786 5783 5781 5778 5776 5774 5772 5770 5769 5768 5767 5765 5764 5762 5761 5760 5758 5757 5756 5754 5752 5750 5749 5748 5747 5746 5745 5743 5742 5741 5741
5830 5825 5821 5818 5814 5809 5804 5800 5797 5794 5791 5788 5785 5782 5779 5776 5774 5772 5771 5769 5767 5766 5765 5764 5763 5761 5759 5758 5756 5755 5754 5753 5751 5750 5748 5746 5745 5745 5745 5743 5742 5741 5741
5829 5824 5819 5815 5811 5807 5803 5798 5795 5792 5789 5787 5784 5781 5778 5775 5773 5771 5770 5769 5767 5765 5764 5763 5762 5760 5759 5757 5756 5754 5753 5751 5750 5748 5746 5745 5744 5744 5744 5743 5742 5741 5741
5828 5823 5817 5812 5808 5805 5801 5797 5794 5790 5787 5785 5783 5780 5778 5775 5773 5772 5770 5768 5767 5765 5763 5761 5760 5759 5757 5756 5755 5754 5752 5750 5749 5747 5745 5745 5744 5743 5742 5742 5742 5741 5740
5826 5822 5817 5812 5807 5803 5799 5795 5792 5789 5786 5783 5781 5779 5776 5774 5772 5771 5769 5768 5766 5765 5763 5762 5760 5759 5757 5756 5754 5753 5751 5749 5748 5747 5745 5744 5743 5743 5742 5741 5741 5741 5740
5823 5820 5816 5811 5806 5801 5796 5792 5789 5787 5784 5782 5779 5777 5775 5772 5770 5768 5767 5766 5765 5764 5762 5761 5760 5758 5757 5755 5754 5752 5750 5749 5748 5746 5745 5744 5744 5743 5743 5742 5742 5741 5741
5822 5818 5814 5810 5805 5801 5796 5792 5788 5785 5782 5780 5778 5776 5774 5772 5770 5768 5766 5764 5764 5763 5761 5760 5759 5758 5756 5755 5754 5752 5751 5749 5748 5747 5746 5745 5744 5744 5744 5744 5743 5743 5743
5819 5815 5811 5806 5802 5799 5795 5792 5788 5785 5782 5779 5777 5776 5774 5772 5770 5768 5766 5764 5763 5762 5761 5759 5758 5757 5756 5755 5754 5753 5752 5751 5749 5748 5748 5746 5745 5744 5744 5745 5744 5743 5743
5815 5812 5808 5805 5800 5796 5793 5790 5786 5784 5782 5780 5777 5775 5773 5772 5770 5769 5767 5764 5762 5760 5759 5759 5758 5757 5756 5755 5755 5754 5753 5752 5751 5750 5749 5748 5747 5746 5745 5746 5746 5745 5743
5811 5809 5806 5803 5798 5794 5791 5789 5786 5783 5781 5779 5776 5774 5772 5770 5769 5767 5766 5763 5760 5759 5759 5758 5757 5757 5756 5755 5754 5753 5752 5752 5751 5750 5750 5750 5749 5748 5748 5747 5747 5747 5746
5806 5805 5803 5800 5796 5792 5789 5787 5785 5784 5781 5778 5775 5772 5770 5767 5766 5764 5763 5761 5759 5758 5758 5757 5756 5756 5755 5755 5754 5753 5752 5751 5750 5750 5751 5751 5751 5750 5750 5749 5749 5748 5747
5804 5802 5800 5797 5794 5791 5788 5785 5783 5782 5779 5776 5773 5770 5767 5764 5762 5760 5759 5758 5757 5755 5755 5755 5755 5754 5753 5753 5752 5752 5751 5749 5749 5749 5750 5751 5751 5752 5751 5751 5750 5749 5749
5798 5796 5795 5793 5789 5786 5782 5780 5778 5776 5774 5772 5770 5767 5763 5760 5757 5755 5754 5754 5753 5751 5750 5750 5750 5751 5750 5750 5749 5749 5748 5748 5747 5748 5749 5750 5751 5752 5751 5751 5750 5749 5750
5794 5791 5789 5787 5783 5780 5776 5772 5770 5769 5768 5766 5764 5761 5759 5756 5754 5751 5750 5749 5749 5747 5747 5747 5747 5747 5747 5747 5746 5746 5747 5747 5747 5746 5747 5749 5749 5750 5751 5751 5750 5749 5749
5789 5786 5784 5780 5776 5771 5768 5766 5765 5763 5762 5760 5758 5756 5754 5752 5750 5747 5745 5745 5745 5745 5743 5743 5744 5744 5743 5743 5743 5744 5745 5745 5745 5745 5745 5746 5747 5748 5749 5749 5749 5748 5748
5786 5783 5779 5775 5770 5764 5760 5759 5757 5756 5755 5753 5752 5751 5749 5747 5744 5742 5740 5740 5742 5742 5742 5741 5741 5740 5739 5738 5738 5741 5741 5742 5743 5743 5743 5743 5744 5744 5744 5745 5746 5746 5747
5782 5779 5776 5773 5767 5761 5757 5755 5752 5751 5749 5747 5746 5746 5744 5743 5740 5738 5737 5738 5738 5739 5740 5739 5739 5737 5734 5733 5734 5736 5737 5738 5739 5740 5740 5740 5740 5740 5740 5740 5742 5742 5743
5778 5774 5770 5767 5764 5759 5754 5750 5747 5745 5743 5741 5740 5739 5739 5738 5736 5734 5734 5734 5734 5735 5736 5736 5735 5733 5732 5731 5731 5731 5732 5732 5733 5734 5735 5735 5735 5734 5735 5736 5737 5737 5738
5771 5768 5764 5761 5757 5753 5748 5744 5741 5739 5737 5735 5734 5733 5731 5730 5730 5728 5728 5729 5729 5729 5730 5729 5728 5729 5728 5728 5725 5726 5727 5728 5728 5728 5729 5730 5729 5729 5730 5731 5732 5733 5733
5763 5760 5757 5753 5749 5745 5740 5736 5733 5731 5731 5729 5728 5727 5724 5723 5722 5721 5721 5722 5723 5723 5724 5724 5722 5721 5722 5721 5716 5716 5719 5722 5723 5724 5725 5725 5725 5725 5725 5727 5727 5728 5729
5756 5755 5752 5748 5744 5739 5735 5732 5730 5727 5725 5723 5721 5719 5717 5715 5713 5713 5713 5714 5716 5717 5717 5718 5717 5715 5716 5715 5710 5706 5706 5712 5717 5719 5719 5720 5720 5720 5720 5722 5722 5724 5725
5748 5746 5744 5740 5737 5733 5730 5726 5723 5719 5716 5713 5712 5710 5709 5707 5707 5707 5707 5708 5710 5711 5712 5713 5714 5711 5709 5710 5708 5703 5699 5701 5706 5710 5711 5712 5712 5712 5714 5715 5716 5719 5721
5745 5743 5739 5736 5732 5728 5725 5720 5716 5710 5706 5704 5702 5700 5700 5699 5698 5699 5700 5701 5704 5706 5707 5709 5711 5709 5707 5705 5705 5703 5702 5702 5697 5698 5701 5703 5703 5704 5705 5707 5710 5713 5715
5742 5738 5734 5731 5728 5725 5721 5717 5713 5708 5703 5699 5695 5692 5691 5690 5690 5690 5691 5693 5696 5699 5702 5704 5705 5705 5705 5703 5701 5700 5697 5695 5694 5690 5689 5692 5692 5695 5696 5698 5702 5706 5709
5737 5733 5730 5726 5724 5722 5719 5715 5710 5706 5700 5695 5691 5686 5684 5682 5681 5681 5682 5684 5686 5689 5693 5696 5698 5699 5700 5700 5699 5697 5695 5691 5689 5686 5684 5684 5682 5685 5689 5691 5694 5698 5700